2023/02/15 00:00:00,21.4,-4.1
2023/02/15 00:10:00,21.5,-4.1
2023/02/15 00:20:00,21.6,-4.1
2023/02/15 00:30:00,21.7,-4.1
2023/02/15 00:40:00,21.7,-4.2
2023/02/15 00:50:00,21.9,-4.2
2023/02/15 01:00:00,21.6,-4.1
2023/02/15 01:10:00,22.0,-4.6
2023/02/15 01:20:00,22.2,-4.5
2023/02/15 01:30:00,22.2,-4.2
2023/02/15 01:40:00,22.1,-4.3
2023/02/15 01:50:00,22.1,-4.5
2023/02/15 02:00:00,22.9,-4.6
2023/02/15 02:10:00,23.9,-4.6
2023/02/15 02:20:00,24.9,-4.8
2023/02/15 02:30:00,25.5,-4.8
2023/02/15 02:40:00,25.6,-5.0
2023/02/15 02:50:00,25.5,-4.9
2023/02/15 03:00:00,25.3,-5.1
2023/02/15 03:10:00,25.3,-5.3
2023/02/15 03:20:00,25.5,-5.5
2023/02/15 03:30:00,25.5,-5.4
2023/02/15 03:40:00,25.4,-5.3
2023/02/15 03:50:00,25.4,-4.9
2023/02/15 04:00:00,25.4,-5.1
2023/02/15 04:10:00,25.6,-4.9
2023/02/15 04:20:00,25.8,-4.9
2023/02/15 04:30:00,25.7,-4.7
2023/02/15 04:40:00,25.6,-4.9
2023/02/15 04:50:00,25.6,-5.0
2023/02/15 05:00:00,25.6,-5.0
2023/02/15 05:10:00,25.9,-5.1
2023/02/15 05:20:00,25.8,-4.9
2023/02/15 05:30:00,25.9,-4.8
2023/02/15 05:40:00,26.0,-4.5
2023/02/15 05:50:00,25.9,-4.7
2023/02/15 06:00:00,25.8,-4.8
2023/02/15 06:10:00,25.7,-4.8
2023/02/15 06:20:00,25.9,-4.8
2023/02/15 06:30:00,25.9,-4.6
2023/02/15 06:40:00,25.9,-4.7
2023/02/15 06:50:00,25.9,-4.8
2023/02/15 07:00:00,26.1,-4.5
2023/02/15 07:10:00,26.0,-4.5
2023/02/15 07:20:00,25.9,-4.2
2023/02/15 07:30:00,25.9,-4.4
2023/02/15 07:40:00,25.8,-4.3
2023/02/15 07:50:00,25.7,-4.2
2023/02/15 08:00:00,25.7,-4.5
2023/02/15 08:10:00,26.1,-4.4
2023/02/15 08:20:00,26.6,-4.2
2023/02/15 08:30:00,26.8,-4.2
2023/02/15 08:40:00,27.0,-3.9
2023/02/15 08:50:00,27.2,-3.2
2023/02/15 09:00:00,27.4,-3.1
2023/02/15 09:10:00,27.6,-3.0
2023/02/15 09:20:00,27.7,-2.7
2023/02/15 09:30:00,27.7,-2.2
2023/02/15 09:40:00,27.9,-1.8
2023/02/15 09:50:00,27.9,-1.4
2023/02/15 10:00:00,27.9,-1.7
2023/02/15 10:10:00,27.8,-2.5
2023/02/15 10:20:00,27.8,-2.2
2023/02/15 10:30:00,27.6,-2.5
2023/02/15 10:40:00,27.9,-1.7
2023/02/15 10:50:00,27.9,-1.8
2023/02/15 11:00:00,28.1,-2.5
2023/02/15 11:10:00,28.6,-1.8
2023/02/15 11:20:00,28.9,-1.7
2023/02/15 11:30:00,28.9,-1.8
2023/02/15 11:40:00,29.1,-1.9
2023/02/15 11:50:00,28.8,-2.5
2023/02/15 12:00:00,28.7,-2.7
2023/02/15 12:10:00,29.2,-2.6
2023/02/15 12:20:00,29.5,-2.6
2023/02/15 12:30:00,30.1, 0.0
2023/02/15 12:40:00,30.3,-0.5
2023/02/15 12:50:00,30.1,-1.1
2023/02/15 13:00:00,30.0,-1.6
2023/02/15 13:10:00,30.1,-2.1
2023/02/15 13:20:00,30.0,-1.6
2023/02/15 13:30:00,30.0,-1.7
2023/02/15 13:40:00,30.0,-0.5
2023/02/15 13:50:00,29.7,-1.2
2023/02/15 14:00:00,29.9,-2.6
2023/02/15 14:10:00,30.4,-2.3
2023/02/15 14:20:00,30.7,-1.4
2023/02/15 14:30:00,31.0,-1.8
2023/02/15 14:40:00,30.8,-1.9
2023/02/15 14:50:00,30.8,-1.8
2023/02/15 15:00:00,31.0,-2.0
2023/02/15 15:10:00,30.9,-2.2
2023/02/15 15:20:00,30.8,-2.1
2023/02/15 15:30:00,30.7,-1.8
2023/02/15 15:40:00,30.6,-1.4
2023/02/15 15:50:00,30.5,-2.4
2023/02/15 16:00:00,30.7,-2.2
2023/02/15 16:10:00,30.6,-2.3
2023/02/15 16:20:00,30.5,-2.6
2023/02/15 16:30:00,30.4,-2.6
2023/02/15 16:40:00,30.3,-2.7
2023/02/15 16:50:00,30.2,-3.1
2023/02/15 17:00:00,30.1,-3.1
2023/02/15 17:10:00,30.2,-3.1
2023/02/15 17:20:00,30.2,-3.1
2023/02/15 17:30:00,30.1,-3.3
2023/02/15 17:40:00,30.2,-3.4
2023/02/15 17:50:00,30.6,-3.6
2023/02/15 18:00:00,30.6,-3.8
2023/02/15 18:10:00,30.6,-3.8
2023/02/15 18:20:00,30.7,-3.9
2023/02/15 18:30:00,30.8,-4.0
2023/02/15 18:40:00,30.9,-3.9
2023/02/15 18:50:00,31.0,-3.8
2023/02/15 19:00:00,31.2,-3.9
2023/02/15 19:10:00,31.3,-3.9
2023/02/15 19:20:00,31.4,-4.3
2023/02/15 19:30:00,31.9,-4.1
2023/02/15 19:40:00,32.1,-4.2
2023/02/15 19:50:00,32.3,-4.2
2023/02/15 20:00:00,32.3,-4.3
2023/02/15 20:10:00,32.4,-4.3
2023/02/15 20:20:00,32.9,-4.2
2023/02/15 20:30:00,33.1,-4.2
2023/02/15 20:40:00,33.1,-4.1
2023/02/15 20:50:00,33.1,-4.2
2023/02/15 21:00:00,33.1,-3.9
2023/02/15 21:10:00,33.0,-4.0
2023/02/15 21:20:00,33.0,-3.9
2023/02/15 21:30:00,33.0,-4.1
2023/02/15 21:40:00,33.0,-4.0
2023/02/15 21:50:00,33.1,-4.1
2023/02/15 22:00:00,33.1,-4.1
2023/02/15 22:10:00,33.0,-4.1
2023/02/15 22:20:00,32.8,-4.1
2023/02/15 22:30:00,32.8,-4.0
2023/02/15 22:40:00,32.7,-4.1
2023/02/15 22:50:00,32.6,-4.1
2023/02/15 23:00:00,32.6,-4.0
2023/02/15 23:10:00,32.6,-3.9
2023/02/15 23:20:00,32.5,-3.9
2023/02/15 23:30:00,32.5,-3.6
2023/02/15 23:40:00,32.5,-3.7
2023/02/15 23:50:00,32.4,-3.9
